(179310) = 2001 VN112

Discovered at Socorro on 2001-11-12 by LINEAR.

Orbit

Orbit type: Main Belt

Note: WebGL enabled browser required.

epoch2024-03-31.0
epoch JD2460400.5
perihelion date2019-09-02.16618
perihelion JD2458728.66619
argument of perihelion (°)343.75098
ascending node (°)2.85671
inclination (°)4.13993
eccentricity0.0771067
perihelion distance (AU)2.5772312
Tisserand w.r.t. Jupiter3.3
ΔV w.r.t. Earth (km/sec)10.1
semimajor axis (AU)2.7925560
mean anomaly (°)353.09726
mean daily motion (°/day)0.21120360
aphelion distance (AU)3.008
period (years)4.67
P-vector [x]0.97277056
P-vector [y]-0.20380056
P-vector [z]-0.11037555
Q-vector [x]0.23174228
Q-vector [y]0.86266800
Q-vector [z]0.44955470
absolute magnitude16.0
phase slope0.15
uncertainty0
referenceE2024-GJ9
observations used496
oppositions15
arc length (days)7474
first opposition used2001
last opposition used2022
residual rms (arc-secs)0.70
perturbers coarse indicatorM-v
perturbers precise indicator003Ek
first observation date used2001-11-12.0
last observation date used2022-04-30.0
computer nameMPCLINUX
JD of orbit computation2456909.278099
perihelion JD uncertainty (days)9.0423E-05
argument of perihelion uncertainty (°)4.8481E-05
ascending node uncertainty (°)4.4033E-05
inclination uncertainty (°)3.6156E-06
eccentricity uncertainty 4.1234E-08
perihelion distance uncertainty (AU)1.2494E-07
Minimum Orbit Intersection Distances (in AU)
for orbit epoch: 2460400.5, reference: E2024-GJ9
Mercury2.18212
Venus1.85059
Earth1.57039
Mars1.19076
Jupiter2.31673
Saturn6.1777
Uranus15.4316
Neptune27.1564

Observations

502 total observations over interval: 2001 11 12.35543 – 2022 04 30.307701
These data are available for download (format description).

Date (UT) J2000 RA J2000 Dec Magn Location Ref
2001 11 12.35543 04 28 56.47 +27 20 29.8 19.7   704 – Lincoln Laboratory ETS, New Mexico MPS 44897
2001 11 12.36991 04 28 55.63 +27 20 28.3 20.5   704 – Lincoln Laboratory ETS, New Mexico MPS 44897
2001 11 12.38436 04 28 54.78 +27 20 29.2 20.6   704 – Lincoln Laboratory ETS, New Mexico MPS 44897
2001 11 12.39884 04 28 54.06 +27 20 27.9 20.2   704 – Lincoln Laboratory ETS, New Mexico MPS 44897
2001 11 12.41330 04 28 53.17 +27 20 28.1 20.0   704 – Lincoln Laboratory ETS, New Mexico MPS 44897
2001 11 19.31016 04 22 23.19 +27 15 40.4 19.9   704 – Lincoln Laboratory ETS, New Mexico MPS 44897
2001 11 19.33950 04 22 21.37 +27 15 38.3 20.3   704 – Lincoln Laboratory ETS, New Mexico MPS 44897
2001 11 19.35417 04 22 20.45 +27 15 35.8 20.0   704 – Lincoln Laboratory ETS, New Mexico MPS 44897
2001 12 10.23513 04 01 45.23 +26 35 21.2 19.2   704 – Lincoln Laboratory ETS, New Mexico MPS 44897
2001 12 10.25084 04 01 44.45 +26 35 19.1 20.0   704 – Lincoln Laboratory ETS, New Mexico MPS 44897
2001 12 10.26635 04 01 43.56 +26 35 16.4 19.9   704 – Lincoln Laboratory ETS, New Mexico MPS 44897
2001 12 10.29797 04 01 41.77 +26 35 12.4 19.4   704 – Lincoln Laboratory ETS, New Mexico MPS 44897
2001 12 11.24865 04 00 50.91 +26 32 43.7 19.5   704 – Lincoln Laboratory ETS, New Mexico MPS 44897
2001 12 11.26505 04 00 50.04 +26 32 41.3 20.0   704 – Lincoln Laboratory ETS, New Mexico MPS 44897
2001 12 11.28077 04 00 49.24 +26 32 38.0 19.5   704 – Lincoln Laboratory ETS, New Mexico MPS 44897
2001 12 18.22332 03 55 08.66 +26 13 58.6 19.4   704 – Lincoln Laboratory ETS, New Mexico MPS 44897
2001 12 18.23846 03 55 07.96 +26 13 55.9 19.6   704 – Lincoln Laboratory ETS, New Mexico MPS 44897
2001 12 18.25361 03 55 07.28 +26 13 53.4 19.9   704 – Lincoln Laboratory ETS, New Mexico MPS 44897
2001 12 18.26875 03 55 06.65 +26 13 52.7 20.5   704 – Lincoln Laboratory ETS, New Mexico MPS 44897
2001 12 18.28411 03 55 05.92 +26 13 49.8 20.2   704 – Lincoln Laboratory ETS, New Mexico MPS 44897
2001 12 19.15205 03 54 27.92 +26 11 27.4 19.4   704 – Lincoln Laboratory ETS, New Mexico MPS 44897
2001 12 19.18577 03 54 26.38 +26 11 22.6 19.7   704 – Lincoln Laboratory ETS, New Mexico MPS 44897
2001 12 19.20093 03 54 25.73 +26 11 20.2 20.0   704 – Lincoln Laboratory ETS, New Mexico MPS 44897
2003 03 30.231050 10 07 10.644 +13 51 29.65 20.84 V 645 – Apache Point-Sloan Digital Sky Survey MPS 155224
2003 03 30.234522 10 07 10.541 +13 51 29.98 21.36   645 – Apache Point-Sloan Digital Sky Survey MPS 155224
2005 08 25.40574 23 41 33.70 -04 09 42.6 19.1   644 – Palomar Mountain/NEAT MPS 140144
2005 08 25.41646 23 41 33.22 -04 09 44.6 19.1   644 – Palomar Mountain/NEAT MPS 140144
2005 08 25.42733 23 41 32.79 -04 09 46.2 19.4   644 – Palomar Mountain/NEAT MPS 140144
2005 08 29.33185 23 38 47.24 -04 21 48.5 18.8 R 699 – Lowell Observatory-LONEOS MPS 140144
2005 08 29.35010 23 38 46.33 -04 21 52.1   699 – Lowell Observatory-LONEOS MPS 140144
2005 08 29.36834 23 38 45.50 -04 21 54.8   699 – Lowell Observatory-LONEOS MPS 140144
2005 08 29.38658 23 38 44.59 -04 21 59.6   699 – Lowell Observatory-LONEOS MPS 140144
2005 09 08.25554 23 30 52.30 -04 56 07.9 18.9   704 – Lincoln Laboratory ETS, New Mexico MPS 141031
2005 09 08.26675 23 30 51.73 -04 56 10.2 19.1   704 – Lincoln Laboratory ETS, New Mexico MPS 141031
2005 09 08.27802 23 30 51.12 -04 56 11.9 19.3   704 – Lincoln Laboratory ETS, New Mexico MPS 141031
2005 09 08.28974 23 30 50.49 -04 56 14.7 19.1   704 – Lincoln Laboratory ETS, New Mexico MPS 141031
2005 09 08.30092 23 30 49.92 -04 56 16.8 18.8   704 – Lincoln Laboratory ETS, New Mexico MPS 141031
2005 09 12.31453 23 27 25.59 -05 10 42.9 19.5 V 691 – Steward Observatory, Kitt Peak-Spacewatch MPS 141660
2005 09 12.33191 23 27 24.66 -05 10 46.6 19.5 V 691 – Steward Observatory, Kitt Peak-Spacewatch MPS 141660
2005 09 12.34937 23 27 23.75 -05 10 50.4 19.3 V 691 – Steward Observatory, Kitt Peak-Spacewatch MPS 141660
2005 09 22.25836 23 19 04.40 -05 44 30.0 19.3 R 644 – Palomar Mountain/NEAT MPS 143734
2005 09 22.28202 23 19 03.22 -05 44 34.7 19.1 R 644 – Palomar Mountain/NEAT MPS 143734
2005 09 22.30584 23 19 02.00 -05 44 39.2 18.9 R 644 – Palomar Mountain/NEAT MPS 143734
2005 09 23.23456 23 18 17.10 -05 47 31.9 19.8 V 703 – Catalina Sky Survey MPS 142204
2005 09 23.24100 23 18 16.84 -05 47 32.3 19.4 V 703 – Catalina Sky Survey MPS 142204
2005 09 23.24744 23 18 16.56 -05 47 33.5 19.3 V 703 – Catalina Sky Survey MPS 142204
2005 09 23.25390 23 18 16.16 -05 47 34.6 18.9 V 703 – Catalina Sky Survey MPS 142204
2005 09 29.19190 23 13 43.59 -06 04 12.9 18.9 R 699 – Lowell Observatory-LONEOS MPS 142585
2005 09 29.21473 23 13 42.60 -06 04 18.2   699 – Lowell Observatory-LONEOS MPS 142585
2005 09 29.23749 23 13 41.58 -06 04 22.8   699 – Lowell Observatory-LONEOS MPS 142585
2005 09 29.26033 23 13 40.54 -06 04 25.7   699 – Lowell Observatory-LONEOS MPS 142585
2005 10 01.20395 23 12 18.03 -06 09 09.1 19.4   704 – Lincoln Laboratory ETS, New Mexico MPS 143734
2005 10 01.21446 23 12 17.62 -06 09 10.4 19.8   704 – Lincoln Laboratory ETS, New Mexico MPS 143734
2005 10 01.22499 23 12 17.20 -06 09 11.6 19.8   704 – Lincoln Laboratory ETS, New Mexico MPS 143734
2005 10 01.23552 23 12 16.71 -06 09 14.0 19.1   704 – Lincoln Laboratory ETS, New Mexico MPS 143734
2005 10 01.24604 23 12 16.18 -06 09 15.7 19.6   704 – Lincoln Laboratory ETS, New Mexico MPS 143734
2005 10 03.24387 23 10 55.74 -06 13 38.9 18.8 V G96 – Mt. Lemmon Survey MPS 143734
2005 10 03.24966 23 10 55.45 -06 13 39.6 19.4 V G96 – Mt. Lemmon Survey MPS 143734
2005 10 03.25538 23 10 55.20 -06 13 40.5 19.4 V G96 – Mt. Lemmon Survey MPS 143734
2005 10 03.26116 23 10 54.94 -06 13 40.9 19.4 V G96 – Mt. Lemmon Survey MPS 143734
2005 11 25.15517 23 09 48.99 -04 53 00.3 20.6 V G96 – Mt. Lemmon Survey MPS 151929
2005 11 25.16110 23 09 49.21 -04 52 58.4 20.5 V G96 – Mt. Lemmon Survey MPS 151929
2005 11 25.16696 23 09 49.39 -04 52 56.7 20.3 V G96 – Mt. Lemmon Survey MPS 151929
2005 11 25.17272 23 09 49.64 -04 52 54.4 20.4 V G96 – Mt. Lemmon Survey MPS 151929
2006 12 18.34490 06 50 48.75 +29 12 04.2 19.5   704 – Lincoln Laboratory ETS, New Mexico MPS 191903
2006 12 18.35788 06 50 47.94 +29 12 04.0 19.7   704 – Lincoln Laboratory ETS, New Mexico MPS 191903
2006 12 18.37082 06 50 47.15 +29 12 05.9 19.6   704 – Lincoln Laboratory ETS, New Mexico MPS 191903
2006 12 24.22420 06 44 57.96 +29 20 48.5 20.3 V 691 – Steward Observatory, Kitt Peak-Spacewatch MPS 191903
2006 12 24.24158 06 44 56.89 +29 20 50.4 20.4 V 691 – Steward Observatory, Kitt Peak-Spacewatch MPS 191903
2006 12 24.25902 06 44 55.78 +29 20 51.7 20.3 V 691 – Steward Observatory, Kitt Peak-Spacewatch MPS 191903
2008 02 11.39218 12 31 50.59 -02 32 46.8 21.2 V G96 – Mt. Lemmon Survey MPS 237397
2008 02 11.40167 12 31 50.41 -02 32 46.5 21.8 V G96 – Mt. Lemmon Survey MPS 237397
2008 02 11.41113 12 31 50.23 -02 32 45.7 21.4 V G96 – Mt. Lemmon Survey MPS 237397
2008 02 11.42062 12 31 50.08 -02 32 45.3 21.1 V G96 – Mt. Lemmon Survey MPS 237397
2008 02 27.28651 12 24 49.45 -02 03 17.1 20.4 V 691 – Steward Observatory, Kitt Peak-Spacewatch MPS 239329
2008 02 27.30756 12 24 48.64 -02 03 14.9 20.5 V 691 – Steward Observatory, Kitt Peak-Spacewatch MPS 239329
2008 02 27.32515 12 24 48.01 -02 03 11.6 20.4 V 691 – Steward Observatory, Kitt Peak-Spacewatch MPS 239329
2008 02 27.37314 12 24 46.22 -02 03 03.6 20.3 V G96 – Mt. Lemmon Survey MPS 239329
2008 02 27.37980 12 24 45.93 -02 03 02.8 20.2 V G96 – Mt. Lemmon Survey MPS 239329
2008 02 27.38648 12 24 45.72 -02 03 00.5 20.3 V G96 – Mt. Lemmon Survey MPS 239329
2008 02 27.39317 12 24 45.46 -02 03 00.4 20.9 V G96 – Mt. Lemmon Survey MPS 239329
2008 03 08.37402 12 17 55.35 -01 30 17.1 20.4 V G96 – Mt. Lemmon Survey MPS 241992
2008 03 08.37943 12 17 55.14 -01 30 16.0 20.1 V G96 – Mt. Lemmon Survey MPS 241992
2008 03 08.38491 12 17 54.85 -01 30 14.9 20.1 V G96 – Mt. Lemmon Survey MPS 241992
2008 03 08.39038 12 17 54.60 -01 30 13.8 20.1 V G96 – Mt. Lemmon Survey MPS 241992
2008 03 26.36289 12 03 11.62 -00 17 19.5 20.4 V G96 – Mt. Lemmon Survey MPS 244533
2008 03 26.36853 12 03 11.37 -00 17 18.0 20.1 V G96 – Mt. Lemmon Survey MPS 244533
